When you browse on this site, cookies collect data to enhance your experience and personalize the content and advertising you see.
Visit our Privacy Policy to learn more. By continuing to use the site, you agree to this use of cookies and data.
  • In Hungary
  • List of Countries
  • For 7 days
  • Water Temperature
  • Satellite Maps
  • Weather Map
  • News
  • Weather Widgets
  • user-avatar
    Login

    Hourly Weather Cugir

    Today, 22 March, Friday

    Time Temperature Precipitation Wind Pressure Humidity
    00:00 +6°C° 0 mm 1 mps 736 mmHg 71%
    01:00 +6°C° 0 mm 1 mps 736 mmHg 71%
    02:00 +5°C° 0 mm 1 mps 736 mmHg 72%
    03:00 +5°C° 0 mm 1 mps 736 mmHg 72%
    04:00 +5°C° 0 mm 1 mps 736 mmHg 71%
    05:00 +5°C° 0 mm 1 mps 735 mmHg 71%
    06:00 +6°C° 0 mm 1 mps 736 mmHg 68%
    07:00 +7°C° 0 mm 1 mps 736 mmHg 65%
    08:00 +6°C° 0 mm 0 mps 736 mmHg 61%
    09:00 +10°C° 0 mm 1 mps 736 mmHg 56%
    10:00 +12°C° 0 mm 1 mps 736 mmHg 51%
    11:00 +14°C° 0 mm 1 mps 736 mmHg 46%
    12:00 +14°C° 0 mm 1 mps 735 mmHg 45%
    13:00 +15°C° 0 mm 1 mps 735 mmHg 43%
    14:00 +16°C° 0 mm 1 mps 735 mmHg 42%
    15:00 +16°C° 0 mm 1 mps 734 mmHg 44%
    16:00 +15°C° 0 mm 1 mps 734 mmHg 45%
    17:00 +15°C° 0 mm 1 mps 734 mmHg 46%
    18:00 +13°C° 0 mm 1 mps 733 mmHg 52%
    19:00 +12°C° 0 mm 1 mps 733 mmHg 58%
    20:00 +10°C° 0 mm 1 mps 733 mmHg 64%
    21:00 +9°C° 0 mm 1 mps 733 mmHg 65%
    22:00 +9°C° 0 mm 1 mps 733 mmHg 67%
    23:00 +8°C° 0 mm 1 mps 733 mmHg 68%

    Tomorrow, 23 March, Saturday

    Time Temperature Precipitation Wind Pressure Humidity
    00:00 +8°C° 0 mm 1 mps 733 mmHg 70%
    01:00 +8°C° 0 mm 1 mps 733 mmHg 71%
    02:00 +7°C° 0 mm 1 mps 733 mmHg 73%
    03:00 +7°C° 0 mm 1 mps 733 mmHg 74%
    04:00 +7°C° 0 mm 1 mps 732 mmHg 76%
    05:00 +7°C° 0 mm 1 mps 732 mmHg 77%
    06:00 +8°C° 0 mm 1 mps 732 mmHg 74%
    07:00 +8°C° 0 mm 1 mps 732 mmHg 71%
    08:00 +9°C° 0 mm 1 mps 732 mmHg 69%
    09:00 +11°C° 0 mm 1 mps 732 mmHg 62%
    10:00 +13°C° 0 mm 1 mps 732 mmHg 55%
    11:00 +15°C° 0 mm 1 mps 732 mmHg 48%
    12:00 +16°C° 0 mm 1 mps 732 mmHg 44%
    13:00 +18°C° 0 mm 1 mps 732 mmHg 40%
    14:00 +19°C° 0 mm 1 mps 732 mmHg 36%
    15:00 +18°C° 0 mm 1 mps 731 mmHg 38%
    16:00 +18°C° 0 mm 1 mps 731 mmHg 40%
    17:00 +16°C° 0 mm 1 mps 730 mmHg 42%
    18:00 +14°C° 0 mm 1 mps 730 mmHg 49%
    19:00 +13°C° 0 mm 1 mps 730 mmHg 55%
    20:00 +11°C° 0 mm 1 mps 730 mmHg 62%
    21:00 +10°C° 0 mm 1 mps 731 mmHg 64%
    22:00 +10°C° 0 mm 1 mps 731 mmHg 65%
    23:00 +9°C° 0 mm 1 mps 731 mmHg 66%

    Day after tomorrow, 24 March, Sunday

    Time Temperature Precipitation Wind Pressure Humidity
    00:00 +9°C° 0 mm 1 mps 731 mmHg 65%
    01:00 +8°C° 0 mm 1 mps 731 mmHg 64%
    02:00 +8°C° 0 mm 1 mps 731 mmHg 63%
    03:00 +8°C° 0 mm 1 mps 731 mmHg 63%
    04:00 +7°C° 0 mm 1 mps 731 mmHg 63%
    05:00 +7°C° 0 mm 1 mps 730 mmHg 63%
    06:00 +8°C° 0 mm 1 mps 730 mmHg 60%
    07:00 +9°C° 0 mm 1 mps 731 mmHg 57%
    08:00 +10°C° 0 mm 1 mps 731 mmHg 54%
    09:00 +12°C° 0 mm 1 mps 731 mmHg 48%
    10:00 +14°C° 0 mm 1 mps 731 mmHg 41%
    11:00 +16°C° 0 mm 1 mps 731 mmHg 34%
    12:00 +18°C° 0 mm 1 mps 730 mmHg 32%
    13:00 +17°C° 0 mm 2 mps 730 mmHg 30%
    14:00 +18°C° 0 mm 2 mps 730 mmHg 28%
    15:00 +18°C° 0 mm 2 mps 729 mmHg 30%
    16:00 +17°C° 0 mm 2 mps 729 mmHg 33%
    17:00 +17°C° 0 mm 2 mps 728 mmHg 36%
    18:00 +15°C° 0 mm 2 mps 728 mmHg 43%
    19:00 +13°C° 0 mm 2 mps 728 mmHg 50%
    20:00 +10°C° 0 mm 2 mps 727 mmHg 57%
    21:00 +10°C° 0 mm 2 mps 727 mmHg 61%
    22:00 +9°C° 0 mm 2 mps 727 mmHg 64%
    23:00 +9°C° 0 mm 2 mps 727 mmHg 67%

    25 March, Monday

    Time Temperature Precipitation Wind Pressure Humidity
    00:00 +8°C° 0 mm 2 mps 727 mmHg 68%
    01:00 +8°C° 0 mm 2 mps 726 mmHg 69%
    02:00 +8°C° 0 mm 2 mps 726 mmHg 71%
    03:00 +8°C° 0 mm 2 mps 726 mmHg 70%
    04:00 +7°C° 0 mm 2 mps 726 mmHg 70%
    05:00 +8°C° 0 mm 1 mps 725 mmHg 70%
    06:00 +9°C° 0 mm 1 mps 725 mmHg 68%
    07:00 +9°C° 0 mm 1 mps 726 mmHg 67%
    08:00 +10°C° 0 mm 1 mps 726 mmHg 66%
    09:00 +10°C° 0 mm 2 mps 726 mmHg 62%
    10:00 +12°C° 0 mm 2 mps 726 mmHg 57%
    11:00 +13°C° 0 mm 3 mps 726 mmHg 53%
    12:00 +13°C° 0.1 mm 3 mps 726 mmHg 50%
    13:00 +13°C° 0.1 mm 4 mps 726 mmHg 46%
    14:00 +13°C° 0.1 mm 4 mps 726 mmHg 43%
    15:00 +12°C° 0 mm 4 mps 725 mmHg 43%
    16:00 +12°C° 0 mm 5 mps 725 mmHg 43%
    17:00 +10°C° 0 mm 5 mps 725 mmHg 42%
    18:00 +8°C° 0 mm 4 mps 725 mmHg 49%
    19:00 +8°C° 0 mm 3 mps 725 mmHg 55%
    20:00 +6°C° 0 mm 2 mps 725 mmHg 62%
    21:00 +6°C° 0 mm 2 mps 725 mmHg 63%
    22:00 +6°C° 0 mm 2 mps 725 mmHg 64%
    23:00 +6°C° 0 mm 1 mps 725 mmHg 66%

    26 March, Tuesday

    Time Temperature Precipitation Wind Pressure Humidity
    00:00 +5°C° 0 mm 2 mps 725 mmHg 67%
    01:00 +5°C° 0 mm 2 mps 725 mmHg 69%
    02:00 +4°C° 0 mm 2 mps 725 mmHg 71%
    03:00 +4°C° 0 mm 2 mps 725 mmHg 72%
    04:00 +4°C° 0 mm 2 mps 725 mmHg 73%
    05:00 +3°C° 0 mm 2 mps 725 mmHg 74%
    06:00 +3°C° 0 mm 2 mps 725 mmHg 74%
    07:00 +4°C° 0 mm 2 mps 725 mmHg 74%
    08:00 +4°C° 0 mm 2 mps 725 mmHg 73%
    09:00 +5°C° 0.2 mm 2 mps 726 mmHg 66%
    10:00 +6°C° 0.2 mm 2 mps 726 mmHg 59%
    11:00 +7°C° 0.2 mm 2 mps 727 mmHg 51%
    12:00 +7°C° 0.1 mm 2 mps 727 mmHg 47%
    13:00 +8°C° 0.1 mm 2 mps 727 mmHg 42%
    14:00 +8°C° 0.1 mm 2 mps 727 mmHg 37%
    15:00 +8°C° 0 mm 3 mps 727 mmHg 38%
    16:00 +7°C° 0 mm 3 mps 727 mmHg 39%
    17:00 +7°C° 0 mm 3 mps 727 mmHg 41%
    18:00 +5°C° 0 mm 3 mps 728 mmHg 50%
    19:00 +4°C° 0 mm 2 mps 728 mmHg 60%
    20:00 +4°C° 0 mm 1 mps 729 mmHg 69%
    21:00 +4°C° 0.1 mm 1 mps 730 mmHg 71%
    22:00 +3°C° 0.1 mm 2 mps 730 mmHg 73%
    23:00 +3°C° 0.1 mm 2 mps 731 mmHg 75%

    27 March, Wednesday

    Time Temperature Precipitation Wind Pressure Humidity
    00:00 +3°C° 0.1 mm 2 mps 731 mmHg 77%
    01:00 +2°C° 0.1 mm 2 mps 731 mmHg 79%
    02:00 +2°C° 0.1 mm 2 mps 732 mmHg 80%
    03:00 +2°C° 0 mm 2 mps 732 mmHg 82%
    04:00 +2°C° 0 mm 2 mps 732 mmHg 83%
    05:00 +2°C° 0 mm 1 mps 733 mmHg 84%
    06:00 +3°C° 0 mm 1 mps 733 mmHg 80%
    07:00 +4°C° 0 mm 1 mps 734 mmHg 77%
    08:00 +4°C° 0 mm 1 mps 734 mmHg 73%
    09:00 +5°C° 0 mm 2 mps 734 mmHg 66%
    10:00 +6°C° 0 mm 2 mps 734 mmHg 58%
    11:00 +8°C° 0 mm 2 mps 735 mmHg 51%
    12:00 +9°C° 0 mm 2 mps 734 mmHg 48%
    13:00 +9°C° 0 mm 2 mps 734 mmHg 45%
    14:00 +10°C° 0 mm 2 mps 734 mmHg 42%
    15:00 +10°C° 0 mm 2 mps 734 mmHg 41%
    16:00 +11°C° 0 mm 1 mps 734 mmHg 40%
    17:00 +10°C° 0 mm 1 mps 733 mmHg 40%
    18:00 +9°C° 0 mm 1 mps 734 mmHg 45%
    19:00 +7°C° 0 mm 1 mps 734 mmHg 51%
    20:00 +6°C° 0 mm 1 mps 734 mmHg 57%
    21:00 +5°C° 0 mm 1 mps 734 mmHg 58%
    22:00 +5°C° 0 mm 1 mps 734 mmHg 58%
    23:00 +5°C° 0 mm 1 mps 734 mmHg 59%
    Show more